Time,TemperatureF,DewpointF,PressureIn,WindDirection,WindDirectionDegrees,WindSpeedMPH,WindSpeedGustMPH,Humidity,HourlyPrecipIn,Conditions,Clouds,dailyrainin,SoftwareType,DateUTC
2013-05-30 00:00:00,61.8,60.9,30.02,WSW,239,3.0,3.0,97,0.00,,,0.00,WeatherCatV1.15B25,2013-05-30 04:00:00,
2013-05-30 00:01:00,61.8,60.9,30.02,SW,219,1.0,3.0,97,0.00,,,0.00,WeatherCatV1.15B25,2013-05-30 04:01:00,
2013-05-30 00:06:00,61.9,61.0,30.02,SW,228,1.0,2.0,97,0.00,,,0.00,WeatherCatV1.15B25,2013-05-30 04:06:00,
2013-05-30 00:11:00,62.1,61.2,30.04,NNE,19,0.0,4.0,97,0.00,,,0.00,WeatherCatV1.15B25,2013-05-30 04:11:00,
2013-05-30 00:16:00,62.2,61.3,30.04,WNW,295,0.0,2.0,97,0.00,,,0.00,WeatherCatV1.15B25,2013-05-30 04:16:00,
2013-05-30 00:21:00,62.6,62.0,30.05,SW,236,3.0,6.0,98,0.00,,,0.00,WeatherCatV1.15B25,2013-05-30 04:21:00,
2013-05-30 00:26:00,63.0,62.4,30.05,SW,231,2.0,3.0,98,0.00,,,0.00,WeatherCatV1.15B25,2013-05-30 04:26:00,
2013-05-30 00:31:00,63.2,62.6,30.05,ENE,59,1.0,3.0,98,0.00,,,0.00,WeatherCatV1.15B25,2013-05-30 04:31:00,
2013-05-30 00:36:00,63.4,62.8,30.05,SSW,212,0.0,1.0,98,0.00,,,0.00,WeatherCatV1.15B25,2013-05-30 04:36:00,
2013-05-30 00:41:00,63.5,62.9,30.05,North,356,0.0,2.0,98,0.00,,,0.00,WeatherCatV1.15B25,2013-05-30 04:41:00,
2013-05-30 00:46:00,63.7,63.1,30.05,NNE,26,2.0,3.0,98,0.00,,,0.00,WeatherCatV1.15B25,2013-05-30 04:46:00,
2013-05-30 00:51:00,63.8,62.9,30.05,SSW,200,0.0,1.0,97,0.00,,,0.00,WeatherCatV1.15B25,2013-05-30 04:51:00,
2013-05-30 00:56:00,63.8,62.9,30.05,SSW,208,0.0,1.0,97,0.00,,,0.00,WeatherCatV1.15B25,2013-05-30 04:56:00,
2013-05-30 01:01:00,63.8,62.9,30.05,NE,56,0.0,1.0,97,0.00,,,0.00,WeatherCatV1.15B25,2013-05-30 05:01:00,
2013-05-30 01:06:00,63.9,63.0,30.04,SW,221,0.0,1.0,97,0.00,,,0.00,WeatherCatV1.15B25,2013-05-30 05:06:00,
2013-05-30 01:11:00,63.9,63.0,30.04,South,177,0.0,0.0,97,0.00,,,0.00,WeatherCatV1.15B25,2013-05-30 05:11:00,
2013-05-30 01:16:00,63.9,63.0,30.04,SSE,167,0.0,1.0,97,0.00,,,0.00,WeatherCatV1.15B25,2013-05-30 05:16:00,
2013-05-30 01:21:00,63.8,62.9,30.04,SSW,196,0.0,0.0,97,0.00,,,0.00,WeatherCatV1.15B25,2013-05-30 05:21:00,
2013-05-30 01:26:00,63.8,62.9,30.04,SSW,198,0.0,0.0,97,0.00,,,0.00,WeatherCatV1.15B25,2013-05-30 05:26:00,
2013-05-30 01:31:00,63.6,62.7,30.04,SSW,198,0.0,0.0,97,0.00,,,0.00,WeatherCatV1.15B25,2013-05-30 05:31:00,
2013-05-30 01:36:00,63.4,62.5,30.03,SSW,198,0.0,0.0,97,0.00,,,0.00,WeatherCatV1.15B25,2013-05-30 05:36:00,
2013-05-30 01:41:00,63.4,62.5,30.03,SSW,203,0.0,0.0,97,0.00,,,0.00,WeatherCatV1.15B25,2013-05-30 05:41:00,
2013-05-30 01:46:00,63.4,62.5,30.04,West,266,0.0,1.0,97,0.00,,,0.00,WeatherCatV1.15B25,2013-05-30 05:46:00,
2013-05-30 01:51:00,63.4,62.5,30.03,SE,138,0.0,1.0,97,0.00,,,0.00,WeatherCatV1.15B25,2013-05-30 05:51:00,
2013-05-30 01:56:00,63.4,62.5,30.04,ENE,62,0.0,1.0,97,0.00,,,0.00,WeatherCatV1.15B25,2013-05-30 05:56:00,
2013-05-30 02:01:00,63.4,62.5,30.03,WSW,239,0.0,1.0,97,0.00,,,0.00,WeatherCatV1.15B25,2013-05-30 06:01:00,
2013-05-30 02:06:00,63.5,62.6,30.03,South,187,0.0,0.0,97,0.00,,,0.00,WeatherCatV1.15B25,2013-05-30 06:06:00,
2013-05-30 02:11:00,63.4,62.5,30.03,South,187,0.0,0.0,97,0.00,,,0.00,WeatherCatV1.15B25,2013-05-30 06:11:00,
2013-05-30 02:16:00,63.5,62.6,30.03,SSW,211,0.0,1.0,97,0.00,,,0.00,WeatherCatV1.15B25,2013-05-30 06:16:00,
2013-05-30 02:21:00,63.4,62.5,30.03,SSW,193,0.0,0.0,97,0.00,,,0.00,WeatherCatV1.15B25,2013-05-30 06:21:00,
2013-05-30 02:26:00,63.3,62.4,30.03,SW,222,0.0,0.0,97,0.00,,,0.00,WeatherCatV1.15B25,2013-05-30 06:26:00,
2013-05-30 02:31:00,63.3,62.4,30.03,SW,222,0.0,1.0,97,0.00,,,0.00,WeatherCatV1.15B25,2013-05-30 06:31:00,
2013-05-30 02:36:00,63.3,62.4,30.03,SW,222,0.0,1.0,97,0.00,,,0.00,WeatherCatV1.15B25,2013-05-30 06:36:00,
2013-05-30 02:41:00,63.1,62.2,30.03,SW,222,0.0,0.0,97,0.00,,,0.00,WeatherCatV1.15B25,2013-05-30 06:41:00,
2013-05-30 02:46:00,63.1,62.2,30.03,SW,222,0.0,0.0,97,0.00,,,0.00,WeatherCatV1.15B25,2013-05-30 06:46:00,
2013-05-30 02:51:00,63.0,62.1,30.03,SW,225,0.0,0.0,97,0.00,,,0.00,WeatherCatV1.15B25,2013-05-30 06:51:00,
2013-05-30 02:56:00,62.8,61.9,30.03,SW,226,0.0,0.0,97,0.00,,,0.00,WeatherCatV1.15B25,2013-05-30 06:56:00,
2013-05-30 03:01:00,62.7,61.8,30.03,North,6,0.0,0.0,97,0.00,,,0.00,WeatherCatV1.15B25,2013-05-30 07:01:00,
2013-05-30 03:06:00,62.6,61.7,30.03,North,6,0.0,0.0,97,0.00,,,0.00,WeatherCatV1.15B25,2013-05-30 07:06:00,
2013-05-30 03:11:00,62.5,61.6,30.04,North,5,0.0,0.0,97,0.00,,,0.00,WeatherCatV1.15B25,2013-05-30 07:11:00,
2013-05-30 03:16:00,62.4,61.5,30.04,North,5,0.0,0.0,97,0.00,,,0.00,WeatherCatV1.15B25,2013-05-30 07:16:00,
2013-05-30 03:21:00,62.2,61.3,30.04,North,5,0.0,0.0,97,0.00,,,0.00,WeatherCatV1.15B25,2013-05-30 07:21:00,
2013-05-30 03:26:00,62.0,61.1,30.04,North,5,0.0,0.0,97,0.00,,,0.00,WeatherCatV1.15B25,2013-05-30 07:26:00,
2013-05-30 03:31:00,62.0,61.1,30.04,North,5,0.0,0.0,97,0.00,,,0.00,WeatherCatV1.15B25,2013-05-30 07:31:00,
2013-05-30 03:36:00,61.8,60.9,30.04,North,5,0.0,0.0,97,0.00,,,0.00,WeatherCatV1.15B25,2013-05-30 07:36:00,
2013-05-30 03:41:00,61.8,60.9,30.04,North,5,0.0,0.0,97,0.00,,,0.00,WeatherCatV1.15B25,2013-05-30 07:41:00,
2013-05-30 03:46:00,61.7,61.1,30.04,North,5,0.0,0.0,98,0.00,,,0.00,WeatherCatV1.15B25,2013-05-30 07:46:00,
2013-05-30 03:51:00,61.6,60.7,30.04,North,5,0.0,0.0,97,0.00,,,0.00,WeatherCatV1.15B25,2013-05-30 07:51:00,
2013-05-30 03:56:00,61.4,60.5,30.04,North,5,0.0,0.0,97,0.00,,,0.00,WeatherCatV1.15B25,2013-05-30 07:56:00,
2013-05-30 04:01:00,61.2,60.3,30.04,North,5,0.0,0.0,97,0.00,,,0.00,WeatherCatV1.15B25,2013-05-30 08:01:00,
2013-05-30 04:06:00,61.1,60.2,30.04,North,5,0.0,0.0,97,0.00,,,0.00,WeatherCatV1.15B25,2013-05-30 08:06:00,
2013-05-30 04:11:00,60.9,60.0,30.05,North,5,0.0,0.0,97,0.00,,,0.00,WeatherCatV1.15B25,2013-05-30 08:11:00,
2013-05-30 04:16:00,60.8,59.9,30.05,North,5,0.0,0.0,97,0.00,,,0.00,WeatherCatV1.15B25,2013-05-30 08:16:00,
2013-05-30 04:21:00,60.7,59.8,30.05,North,5,0.0,0.0,97,0.00,,,0.00,WeatherCatV1.15B25,2013-05-30 08:21:00,
2013-05-30 04:26:00,60.6,60.0,30.05,North,5,0.0,0.0,98,0.00,,,0.00,WeatherCatV1.15B25,2013-05-30 08:26:00,
2013-05-30 04:31:00,60.6,60.0,30.05,North,6,0.0,0.0,98,0.00,,,0.00,WeatherCatV1.15B25,2013-05-30 08:31:00,
2013-05-30 04:36:00,60.5,59.9,30.05,North,6,0.0,0.0,98,0.00,,,0.00,WeatherCatV1.15B25,2013-05-30 08:36:00,
2013-05-30 04:41:00,60.4,59.8,30.05,North,5,0.0,0.0,98,0.00,,,0.00,WeatherCatV1.15B25,2013-05-30 08:41:00,
2013-05-30 04:46:00,60.4,59.8,30.05,North,5,0.0,0.0,98,0.00,,,0.00,WeatherCatV1.15B25,2013-05-30 08:46:00,
2013-05-30 04:51:00,60.4,59.8,30.05,North,5,0.0,0.0,98,0.00,,,0.00,WeatherCatV1.15B25,2013-05-30 08:51:00,
2013-05-30 04:56:00,60.3,59.7,30.05,North,5,0.0,0.0,98,0.00,,,0.00,WeatherCatV1.15B25,2013-05-30 08:56:00,
2013-05-30 05:01:00,60.3,59.7,30.05,North,5,0.0,0.0,98,0.00,,,0.00,WeatherCatV1.15B25,2013-05-30 09:01:00,
2013-05-30 05:06:00,60.3,59.7,30.05,North,6,0.0,0.0,98,0.00,,,0.00,WeatherCatV1.15B25,2013-05-30 09:06:00,
2013-05-30 05:11:00,60.4,59.8,30.05,North,5,0.0,0.0,98,0.00,,,0.00,WeatherCatV1.15B25,2013-05-30 09:11:00,
2013-05-30 05:16:00,60.4,59.8,30.05,North,5,0.0,0.0,98,0.00,,,0.00,WeatherCatV1.15B25,2013-05-30 09:16:00,
2013-05-30 05:21:00,60.3,59.7,30.05,North,5,0.0,0.0,98,0.00,,,0.00,WeatherCatV1.15B25,2013-05-30 09:21:00,
2013-05-30 05:26:00,60.2,59.6,30.06,North,5,0.0,0.0,98,0.00,,,0.00,WeatherCatV1.15B25,2013-05-30 09:26:00,
2013-05-30 05:31:00,60.2,59.6,30.06,North,5,0.0,0.0,98,0.00,,,0.00,WeatherCatV1.15B25,2013-05-30 09:31:00,
2013-05-30 05:36:00,60.2,59.6,30.06,North,5,0.0,0.0,98,0.00,,,0.00,WeatherCatV1.15B25,2013-05-30 09:36:00,
2013-05-30 05:41:00,60.3,59.7,30.06,North,5,0.0,0.0,98,0.00,,,0.00,WeatherCatV1.15B25,2013-05-30 09:41:00,
2013-05-30 05:46:00,60.4,59.8,30.06,North,5,0.0,0.0,98,0.00,,,0.00,WeatherCatV1.15B25,2013-05-30 09:46:00,
2013-05-30 05:51:00,60.5,59.9,30.06,North,5,0.0,0.0,98,0.00,,,0.00,WeatherCatV1.15B25,2013-05-30 09:51:00,
2013-05-30 05:56:00,60.7,60.1,30.07,North,5,0.0,0.0,98,0.00,,,0.00,WeatherCatV1.15B25,2013-05-30 09:56:00,
2013-05-30 06:01:00,60.9,60.3,30.07,North,5,0.0,0.0,98,0.00,,,0.00,WeatherCatV1.15B25,2013-05-30 10:01:00,
2013-05-30 06:06:00,61.4,60.8,30.07,North,5,0.0,0.0,98,0.00,,,0.00,WeatherCatV1.15B25,2013-05-30 10:06:00,
2013-05-30 06:11:00,61.6,61.0,30.07,North,5,0.0,0.0,98,0.00,,,0.00,WeatherCatV1.15B25,2013-05-30 10:11:00,
2013-05-30 06:16:00,61.8,61.2,30.07,North,5,0.0,0.0,98,0.00,,,0.00,WeatherCatV1.15B25,2013-05-30 10:16:00,
2013-05-30 06:21:00,62.1,61.8,30.07,North,5,0.0,0.0,99,0.00,,,0.00,WeatherCatV1.15B25,2013-05-30 10:21:00,
2013-05-30 06:26:00,62.4,62.1,30.08,North,5,0.0,0.0,99,0.00,,,0.00,WeatherCatV1.15B25,2013-05-30 10:26:00,
2013-05-30 06:31:00,62.7,62.4,30.08,North,5,0.0,0.0,99,0.00,,,0.00,WeatherCatV1.15B25,2013-05-30 10:31:00,
2013-05-30 06:36:00,63.0,62.7,30.08,North,6,0.0,0.0,99,0.00,,,0.00,WeatherCatV1.15B25,2013-05-30 10:36:00,
2013-05-30 06:41:00,63.5,63.2,30.08,North,5,0.0,0.0,99,0.00,,,0.00,WeatherCatV1.15B25,2013-05-30 10:41:00,
2013-05-30 06:46:00,63.8,63.5,30.08,North,5,0.0,0.0,99,0.00,,,0.00,WeatherCatV1.15B25,2013-05-30 10:46:00,
2013-05-30 06:47:00,64.0,63.7,30.08,North,5,0.0,0.0,99,0.00,,,0.00,WeatherCatV1.15B25,2013-05-30 10:47:00,
2013-05-30 06:52:00,64.3,64.0,30.08,North,5,0.0,0.0,99,0.00,,,0.00,WeatherCatV1.15B25,2013-05-30 10:52:00,
2013-05-30 06:57:00,64.7,64.4,30.07,North,5,0.0,0.0,99,0.00,,,0.00,WeatherCatV1.15B25,2013-05-30 10:57:00,
2013-05-30 07:02:00,65.1,64.8,30.07,North,5,0.0,0.0,99,0.00,,,0.00,WeatherCatV1.15B25,2013-05-30 11:02:00,
2013-05-30 07:07:00,65.6,65.3,30.07,North,5,0.0,0.0,99,0.00,,,0.00,WeatherCatV1.15B25,2013-05-30 11:07:00,
2013-05-30 07:12:00,65.9,65.6,30.07,North,5,0.0,0.0,99,0.00,,,0.00,WeatherCatV1.15B25,2013-05-30 11:12:00,
2013-05-30 07:17:00,66.3,66.0,30.07,North,6,0.0,0.0,99,0.00,,,0.00,WeatherCatV1.15B25,2013-05-30 11:17:00,
2013-05-30 07:22:00,66.7,66.4,30.07,North,5,0.0,0.0,99,0.00,,,0.00,WeatherCatV1.15B25,2013-05-30 11:22:00,
2013-05-30 07:27:00,66.9,66.6,30.07,NNE,24,0.0,3.0,99,0.00,,,0.00,WeatherCatV1.15B25,2013-05-30 11:27:00,
2013-05-30 07:32:00,67.1,66.8,30.07,NNE,32,0.0,0.0,99,0.00,,,0.00,WeatherCatV1.15B25,2013-05-30 11:32:00,
2013-05-30 07:37:00,67.3,67.0,30.07,SSE,159,0.0,0.0,99,0.00,,,0.00,WeatherCatV1.15B25,2013-05-30 11:37:00,
2013-05-30 07:42:00,67.7,67.4,30.07,SSE,159,0.0,0.0,99,0.00,,,0.00,WeatherCatV1.15B25,2013-05-30 11:42:00,
2013-05-30 07:47:00,68.0,67.7,30.07,WSW,243,0.0,0.0,99,0.00,,,0.00,WeatherCatV1.15B25,2013-05-30 11:47:00,
2013-05-30 07:52:00,68.3,68.0,30.08,South,169,0.0,2.0,99,0.00,,,0.00,WeatherCatV1.15B25,2013-05-30 11:52:00,
2013-05-30 07:57:00,68.9,68.0,30.08,NNW,347,2.0,2.0,97,0.00,,,0.00,WeatherCatV1.15B25,2013-05-30 11:57:00,
2013-05-30 08:02:00,69.4,67.6,30.08,WSW,238,1.0,3.0,94,0.00,,,0.00,WeatherCatV1.15B25,2013-05-30 12:02:00,
2013-05-30 08:07:00,69.9,67.5,30.08,NW,323,2.0,2.0,92,0.00,,,0.00,WeatherCatV1.15B25,2013-05-30 12:07:00,
2013-05-30 08:12:00,70.5,67.4,30.08,SSW,212,0.0,3.0,90,0.00,,,0.00,WeatherCatV1.15B25,2013-05-30 12:12:00,
2013-05-30 08:17:00,71.0,68.6,30.08,North,11,0.0,1.0,92,0.00,,,0.00,WeatherCatV1.15B25,2013-05-30 12:17:00,
2013-05-30 08:22:00,71.4,68.0,30.08,SSW,212,2.0,6.0,89,0.00,,,0.00,WeatherCatV1.15B25,2013-05-30 12:22:00,
2013-05-30 08:27:00,71.8,68.4,30.08,NNE,25,0.0,1.0,89,0.00,,,0.00,WeatherCatV1.15B25,2013-05-30 12:27:00,
2013-05-30 08:32:00,72.2,68.1,30.08,SW,214,0.0,1.0,87,0.00,,,0.00,WeatherCatV1.15B25,2013-05-30 12:32:00,
2013-05-30 08:37:00,72.6,68.2,30.09,SSW,205,2.0,3.0,86,0.00,,,0.00,WeatherCatV1.15B25,2013-05-30 12:37:00,
2013-05-30 08:42:00,72.9,67.8,30.09,SSE,147,2.0,6.0,84,0.00,,,0.00,WeatherCatV1.15B25,2013-05-30 12:42:00,
2013-05-30 08:47:00,73.2,67.7,30.09,SW,236,1.0,6.0,83,0.00,,,0.00,WeatherCatV1.15B25,2013-05-30 12:47:00,
2013-05-30 08:52:00,73.5,68.4,30.09,South,169,0.0,2.0,84,0.00,,,0.00,WeatherCatV1.15B25,2013-05-30 12:52:00,
2013-05-30 08:57:00,73.9,68.4,30.09,WSW,256,0.0,2.0,83,0.00,,,0.00,WeatherCatV1.15B25,2013-05-30 12:57:00,
2013-05-30 09:02:00,74.3,68.8,30.09,SSW,201,3.0,3.0,83,0.00,,,0.00,WeatherCatV1.15B25,2013-05-30 13:02:00,
2013-05-30 09:07:00,74.7,68.8,30.09,NE,43,0.0,2.0,82,0.00,,,0.00,WeatherCatV1.15B25,2013-05-30 13:07:00,
2013-05-30 09:12:00,75.0,68.4,30.09,SSW,208,4.0,4.0,80,0.00,,,0.00,WeatherCatV1.15B25,2013-05-30 13:12:00,
2013-05-30 09:17:00,75.3,67.9,30.09,SSW,211,2.0,3.0,78,0.00,,,0.00,WeatherCatV1.15B25,2013-05-30 13:17:00,
2013-05-30 09:22:00,75.8,68.4,30.09,SW,224,0.0,3.0,78,0.00,,,0.00,WeatherCatV1.15B25,2013-05-30 13:22:00,
2013-05-30 09:27:00,76.2,68.4,30.09,NNW,340,2.0,2.0,77,0.00,,,0.00,WeatherCatV1.15B25,2013-05-30 13:27:00,
2013-05-30 09:32:00,76.6,68.8,30.09,SSW,198,1.0,4.0,77,0.00,,,0.00,WeatherCatV1.15B25,2013-05-30 13:32:00,
2013-05-30 09:37:00,76.9,69.1,30.09,ESE,122,1.0,3.0,77,0.00,,,0.00,WeatherCatV1.15B25,2013-05-30 13:37:00,
2013-05-30 09:42:00,77.2,68.6,30.09,ESE,113,0.0,2.0,75,0.00,,,0.00,WeatherCatV1.15B25,2013-05-30 13:42:00,
2013-05-30 09:47:00,77.6,68.2,30.09,SW,221,1.0,2.0,73,0.00,,,0.00,WeatherCatV1.15B25,2013-05-30 13:47:00,
2013-05-30 09:52:00,78.1,68.3,30.09,SSW,193,0.0,3.0,72,0.00,,,0.00,WeatherCatV1.15B25,2013-05-30 13:52:00,
2013-05-30 09:57:00,78.5,68.3,30.09,SW,217,0.0,6.0,71,0.00,,,0.00,WeatherCatV1.15B25,2013-05-30 13:57:00,
2013-05-30 10:02:00,78.6,67.6,30.09,SW,221,4.0,6.0,69,0.00,,,0.00,WeatherCatV1.15B25,2013-05-30 14:02:00,
2013-05-30 10:07:00,79.0,68.4,30.09,ESE,122,0.0,1.0,70,0.00,,,0.00,WeatherCatV1.15B25,2013-05-30 14:07:00,
2013-05-30 10:12:00,79.6,68.5,30.08,East,82,1.0,3.0,69,0.00,,,0.00,WeatherCatV1.15B25,2013-05-30 14:12:00,
2013-05-30 10:17:00,79.8,67.8,30.08,SSW,207,1.0,4.0,67,0.00,,,0.00,WeatherCatV1.15B25,2013-05-30 14:17:00,
2013-05-30 10:22:00,80.2,68.7,30.08,NNE,15,1.0,2.0,68,0.00,,,0.00,WeatherCatV1.15B25,2013-05-30 14:22:00,
2013-05-30 10:27:00,80.4,67.5,30.08,ENE,72,1.0,2.0,65,0.00,,,0.00,WeatherCatV1.15B25,2013-05-30 14:27:00,
2013-05-30 10:32:00,80.7,67.8,30.08,West,274,1.0,6.0,65,0.00,,,0.00,WeatherCatV1.15B25,2013-05-30 14:32:00,
2013-05-30 10:37:00,81.0,67.2,30.08,South,186,1.0,2.0,63,0.00,,,0.00,WeatherCatV1.15B25,2013-05-30 14:37:00,
2013-05-30 10:42:00,81.6,68.2,30.08,SSW,203,2.0,2.0,64,0.00,,,0.00,WeatherCatV1.15B25,2013-05-30 14:42:00,
2013-05-30 10:48:00,81.9,67.6,30.08,NNW,340,1.0,3.0,62,0.00,,,0.00,WeatherCatV1.15B25,2013-05-30 14:48:00,
2013-05-30 10:53:00,82.2,67.9,30.08,ENE,74,1.0,3.0,62,0.00,,,0.00,WeatherCatV1.15B25,2013-05-30 14:53:00,
2013-05-30 10:58:00,82.3,67.5,30.08,SSW,211,2.0,3.0,61,0.00,,,0.00,WeatherCatV1.15B25,2013-05-30 14:58:00,
2013-05-30 11:03:00,82.3,67.0,30.08,SSW,208,3.0,3.0,60,0.00,,,0.00,WeatherCatV1.15B25,2013-05-30 15:03:00,
2013-05-30 11:08:00,82.7,67.9,30.08,SSW,207,2.0,5.0,61,0.00,,,0.00,WeatherCatV1.15B25,2013-05-30 15:08:00,
2013-05-30 11:13:00,83.3,68.4,30.08,NNW,333,1.0,2.0,61,0.00,,,0.00,WeatherCatV1.15B25,2013-05-30 15:13:00,
2013-05-30 11:18:00,83.4,68.5,30.08,SW,235,0.0,2.0,61,0.00,,,0.00,WeatherCatV1.15B25,2013-05-30 15:18:00,
2013-05-30 11:23:00,84.2,68.3,30.08,SW,214,0.0,1.0,59,0.00,,,0.00,WeatherCatV1.15B25,2013-05-30 15:23:00,
2013-05-30 11:28:00,84.6,67.7,30.08,SW,225,0.0,2.0,57,0.00,,,0.00,WeatherCatV1.15B25,2013-05-30 15:28:00,
2013-05-30 11:33:00,84.8,66.8,30.08,SSW,210,0.0,6.0,55,0.00,,,0.00,WeatherCatV1.15B25,2013-05-30 15:33:00,
2013-05-30 11:38:00,84.8,66.3,30.08,SW,221,1.0,4.0,54,0.00,,,0.00,WeatherCatV1.15B25,2013-05-30 15:38:00,
2013-05-30 11:43:00,84.9,66.9,30.08,WSW,238,0.0,4.0,55,0.00,,,0.00,WeatherCatV1.15B25,2013-05-30 15:43:00,
2013-05-30 11:48:00,84.8,65.7,30.08,SSW,200,1.0,5.0,53,0.00,,,0.00,WeatherCatV1.15B25,2013-05-30 15:48:00,
2013-05-30 11:53:00,85.1,67.1,30.07,SW,226,0.0,1.0,55,0.00,,,0.00,WeatherCatV1.15B25,2013-05-30 15:53:00,
2013-05-30 11:58:00,85.5,65.8,30.07,NNW,342,0.0,4.0,52,0.00,,,0.00,WeatherCatV1.15B25,2013-05-30 15:58:00,
2013-05-30 12:03:00,85.8,65.0,30.08,WSW,245,0.0,4.0,50,0.00,,,0.00,WeatherCatV1.15B25,2013-05-30 16:03:00,
2013-05-30 12:08:00,86.0,65.7,30.07,SSW,211,4.0,4.0,51,0.00,,,0.00,WeatherCatV1.15B25,2013-05-30 16:08:00,
2013-05-30 12:13:00,86.1,66.4,30.07,NE,46,2.0,5.0,52,0.00,,,0.00,WeatherCatV1.15B25,2013-05-30 16:13:00,
2013-05-30 12:18:00,86.3,66.0,30.07,SSE,154,1.0,4.0,51,0.00,,,0.00,WeatherCatV1.15B25,2013-05-30 16:18:00,
2013-05-30 12:23:00,86.6,66.3,30.07,South,172,3.0,6.0,51,0.00,,,0.00,WeatherCatV1.15B25,2013-05-30 16:23:00,
2013-05-30 12:28:00,86.3,66.0,30.07,SSW,212,2.0,7.0,51,0.00,,,0.00,WeatherCatV1.15B25,2013-05-30 16:28:00,
2013-05-30 12:33:00,86.3,66.6,30.07,NE,40,1.0,2.0,52,0.00,,,0.00,WeatherCatV1.15B25,2013-05-30 16:33:00,
2013-05-30 12:38:00,86.6,66.3,30.07,SSW,205,5.0,5.0,51,0.00,,,0.00,WeatherCatV1.15B25,2013-05-30 16:38:00,
2013-05-30 12:43:00,86.7,66.4,30.07,SSW,193,2.0,4.0,51,0.00,,,0.00,WeatherCatV1.15B25,2013-05-30 16:43:00,
2013-05-30 12:48:00,86.8,66.5,30.07,SW,231,0.0,2.0,51,0.00,,,0.00,WeatherCatV1.15B25,2013-05-30 16:48:00,
2013-05-30 12:53:00,86.9,66.0,30.06,North,349,0.0,3.0,50,0.00,,,0.00,WeatherCatV1.15B25,2013-05-30 16:53:00,
2013-05-30 12:58:00,86.9,66.6,30.06,SW,214,1.0,2.0,51,0.00,,,0.00,WeatherCatV1.15B25,2013-05-30 16:58:00,
2013-05-30 13:03:00,86.9,65.4,30.06,South,187,0.0,15.0,49,0.00,,,0.00,WeatherCatV1.15B25,2013-05-30 17:03:00,
2013-05-30 13:08:00,87.0,65.5,30.06,West,281,0.0,5.0,49,0.00,,,0.00,WeatherCatV1.15B25,2013-05-30 17:08:00,
2013-05-30 13:13:00,87.5,65.9,30.06,SW,219,2.0,4.0,49,0.00,,,0.00,WeatherCatV1.15B25,2013-05-30 17:13:00,
2013-05-30 13:18:00,87.4,65.3,30.06,SW,219,0.0,5.0,48,0.00,,,0.00,WeatherCatV1.15B25,2013-05-30 17:18:00,
2013-05-30 13:23:00,87.0,65.5,30.06,SSW,211,2.0,3.0,49,0.00,,,0.00,WeatherCatV1.15B25,2013-05-30 17:23:00,
2013-05-30 13:28:00,87.3,65.8,30.06,West,275,0.0,4.0,49,0.00,,,0.00,WeatherCatV1.15B25,2013-05-30 17:28:00,
2013-05-30 13:33:00,88.0,67.0,30.06,South,186,1.0,2.0,50,0.00,,,0.00,WeatherCatV1.15B25,2013-05-30 17:33:00,
2013-05-30 13:38:00,88.5,66.9,30.05,South,190,3.0,3.0,49,0.00,,,0.00,WeatherCatV1.15B25,2013-05-30 17:38:00,
2013-05-30 13:43:00,88.9,66.6,30.05,SSE,150,2.0,2.0,48,0.00,,,0.00,WeatherCatV1.15B25,2013-05-30 17:43:00,
2013-05-30 13:48:00,89.5,66.6,30.05,NNE,19,0.0,3.0,47,0.00,,,0.00,WeatherCatV1.15B25,2013-05-30 17:48:00,
2013-05-30 13:53:00,89.3,65.8,30.05,East,94,1.0,2.0,46,0.00,,,0.00,WeatherCatV1.15B25,2013-05-30 17:53:00,
2013-05-30 13:58:00,88.6,65.7,30.05,SSW,212,0.0,4.0,47,0.00,,,0.00,WeatherCatV1.15B25,2013-05-30 17:58:00,
2013-05-30 14:03:00,88.4,65.6,30.05,NNE,16,1.0,4.0,47,0.00,,,0.00,WeatherCatV1.15B25,2013-05-30 18:03:00,
2013-05-30 14:08:00,88.8,67.7,30.05,SSE,167,0.0,0.0,50,0.00,,,0.00,WeatherCatV1.15B25,2013-05-30 18:08:00,
2013-05-30 14:13:00,89.3,66.4,30.04,WSW,243,2.0,8.0,47,0.00,,,0.00,WeatherCatV1.15B25,2013-05-30 18:13:00,
2013-05-30 14:18:00,89.7,68.0,30.04,SW,236,1.0,3.0,49,0.00,,,0.00,WeatherCatV1.15B25,2013-05-30 18:18:00,
2013-05-30 14:23:00,89.9,65.0,30.04,SSW,194,2.0,8.0,44,0.00,,,0.00,WeatherCatV1.15B25,2013-05-30 18:23:00,
2013-05-30 14:28:00,89.2,66.3,30.04,South,169,1.0,3.0,47,0.00,,,0.00,WeatherCatV1.15B25,2013-05-30 18:28:00,
2013-05-30 14:33:00,89.0,65.5,30.04,SSW,205,3.0,5.0,46,0.00,,,0.00,WeatherCatV1.15B25,2013-05-30 18:33:00,
2013-05-30 14:38:00,88.8,65.3,30.04,SW,229,0.0,5.0,46,0.00,,,0.00,WeatherCatV1.15B25,2013-05-30 18:38:00,
2013-05-30 14:43:00,88.9,65.4,30.04,SSE,158,4.0,7.0,46,0.00,,,0.00,WeatherCatV1.15B25,2013-05-30 18:43:00,
2013-05-30 14:48:00,88.9,66.0,30.04,WSW,238,2.0,3.0,47,0.00,,,0.00,WeatherCatV1.15B25,2013-05-30 18:48:00,
2013-05-30 14:53:00,89.2,66.9,30.04,North,356,1.0,7.0,48,0.00,,,0.00,WeatherCatV1.15B25,2013-05-30 18:53:00,
2013-05-30 14:58:00,89.5,66.6,30.04,WSW,242,1.0,4.0,47,0.00,,,0.00,WeatherCatV1.15B25,2013-05-30 18:58:00,
2013-05-30 15:03:00,89.3,66.4,30.04,SSE,166,0.0,3.0,47,0.00,,,0.00,WeatherCatV1.15B25,2013-05-30 19:03:00,
2013-05-30 15:08:00,89.0,64.9,30.03,SE,127,6.0,11.0,45,0.00,,,0.00,WeatherCatV1.15B25,2013-05-30 19:08:00,
2013-05-30 15:13:00,88.9,65.4,30.03,SSE,147,2.0,6.0,46,0.00,,,0.00,WeatherCatV1.15B25,2013-05-30 19:13:00,
2013-05-30 15:18:00,89.3,66.4,30.03,SSW,210,2.0,2.0,47,0.00,,,0.00,WeatherCatV1.15B25,2013-05-30 19:18:00,
2013-05-30 15:23:00,89.6,66.7,30.03,SW,228,1.0,4.0,47,0.00,,,0.00,WeatherCatV1.15B25,2013-05-30 19:23:00,
2013-05-30 15:28:00,89.7,66.1,30.03,WSW,248,0.0,4.0,46,0.00,,,0.00,WeatherCatV1.15B25,2013-05-30 19:28:00,
2013-05-30 15:33:00,89.5,65.9,30.03,SW,217,1.0,6.0,46,0.00,,,0.00,WeatherCatV1.15B25,2013-05-30 19:33:00,
2013-05-30 15:38:00,89.4,65.9,30.03,SSW,205,1.0,4.0,46,0.00,,,0.00,WeatherCatV1.15B25,2013-05-30 19:38:00,
2013-05-30 15:43:00,89.6,66.7,30.03,SSW,211,0.0,3.0,47,0.00,,,0.00,WeatherCatV1.15B25,2013-05-30 19:43:00,
2013-05-30 15:48:00,90.0,66.4,30.03,SW,233,1.0,4.0,46,0.00,,,0.00,WeatherCatV1.15B25,2013-05-30 19:48:00,
2013-05-30 15:53:00,90.2,66.6,30.03,North,356,0.0,1.0,46,0.00,,,0.00,WeatherCatV1.15B25,2013-05-30 19:53:00,
2013-05-30 15:58:00,90.3,66.0,30.02,SE,138,5.0,5.0,45,0.00,,,0.00,WeatherCatV1.15B25,2013-05-30 19:58:00,
2013-05-30 16:03:00,90.4,66.8,30.02,NNW,329,1.0,2.0,46,0.00,,,0.00,WeatherCatV1.15B25,2013-05-30 20:03:00,
2013-05-30 16:08:00,91.1,66.1,30.02,SSW,203,2.0,3.0,44,0.00,,,0.00,WeatherCatV1.15B25,2013-05-30 20:08:00,
2013-05-30 16:13:00,90.8,65.8,30.02,SSW,208,2.0,4.0,44,0.00,,,0.00,WeatherCatV1.15B25,2013-05-30 20:13:00,
2013-05-30 16:18:00,90.0,65.1,30.02,NW,309,2.0,4.0,44,0.00,,,0.00,WeatherCatV1.15B25,2013-05-30 20:18:00,
2013-05-30 16:23:00,89.2,65.7,30.02,SSW,194,0.0,1.0,46,0.00,,,0.00,WeatherCatV1.15B25,2013-05-30 20:23:00,
2013-05-30 16:28:00,88.9,66.0,30.02,NW,307,3.0,3.0,47,0.00,,,0.00,WeatherCatV1.15B25,2013-05-30 20:28:00,
2013-05-30 16:33:00,88.8,65.9,30.02,SSW,208,1.0,2.0,47,0.00,,,0.00,WeatherCatV1.15B25,2013-05-30 20:33:00,
2013-05-30 16:38:00,89.2,66.9,30.02,WNW,298,1.0,1.0,48,0.00,,,0.00,WeatherCatV1.15B25,2013-05-30 20:38:00,
2013-05-30 16:43:00,90.0,67.6,30.02,North,0,2.0,2.0,48,0.00,,,0.00,WeatherCatV1.15B25,2013-05-30 20:43:00,
2013-05-30 16:48:00,90.8,67.1,30.02,SW,225,1.0,7.0,46,0.00,,,0.00,WeatherCatV1.15B25,2013-05-30 20:48:00,
2013-05-30 16:53:00,91.0,66.0,30.02,SW,223,3.0,3.0,44,0.00,,,0.00,WeatherCatV1.15B25,2013-05-30 20:53:00,
2013-05-30 16:58:00,91.1,66.8,30.02,SSW,211,0.0,2.0,45,0.00,,,0.00,WeatherCatV1.15B25,2013-05-30 20:58:00,
2013-05-30 17:03:00,91.2,66.2,30.02,SSW,208,1.0,5.0,44,0.00,,,0.00,WeatherCatV1.15B25,2013-05-30 21:03:00,
2013-05-30 17:08:00,90.8,65.8,30.01,SW,217,2.0,3.0,44,0.00,,,0.00,WeatherCatV1.15B25,2013-05-30 21:08:00,
2013-05-30 17:13:00,90.3,66.7,30.01,East,98,0.0,2.0,46,0.00,,,0.00,WeatherCatV1.15B25,2013-05-30 21:13:00,
2013-05-30 17:18:00,90.2,66.6,30.01,SW,224,0.0,3.0,46,0.00,,,0.00,WeatherCatV1.15B25,2013-05-30 21:18:00,
2013-05-30 17:23:00,90.4,66.8,30.01,WSW,252,0.0,1.0,46,0.00,,,0.00,WeatherCatV1.15B25,2013-05-30 21:23:00,
2013-05-30 17:28:00,90.2,65.9,30.01,ENE,60,1.0,2.0,45,0.00,,,0.00,WeatherCatV1.15B25,2013-05-30 21:28:00,
2013-05-30 17:33:00,90.2,66.6,30.01,South,180,2.0,3.0,46,0.00,,,0.00,WeatherCatV1.15B25,2013-05-30 21:33:00,
2013-05-30 17:38:00,89.8,66.2,30.00,North,11,0.0,4.0,46,0.00,,,0.00,WeatherCatV1.15B25,2013-05-30 21:38:00,
2013-05-30 17:43:00,89.3,65.8,30.00,SW,216,1.0,5.0,46,0.00,,,0.00,WeatherCatV1.15B25,2013-05-30 21:43:00,
2013-05-30 17:48:00,89.1,66.2,30.01,WSW,246,0.0,1.0,47,0.00,,,0.00,WeatherCatV1.15B25,2013-05-30 21:48:00,
2013-05-30 17:53:00,89.1,66.2,30.01,NW,326,0.0,2.0,47,0.00,,,0.00,WeatherCatV1.15B25,2013-05-30 21:53:00,
2013-05-30 17:58:00,88.7,66.4,30.01,SW,217,1.0,1.0,48,0.00,,,0.00,WeatherCatV1.15B25,2013-05-30 21:58:00,
2013-05-30 18:03:00,88.3,66.1,30.01,SW,231,1.0,4.0,48,0.00,,,0.00,WeatherCatV1.15B25,2013-05-30 22:03:00,
2013-05-30 18:08:00,87.7,65.5,30.01,SSW,197,2.0,7.0,48,0.00,,,0.00,WeatherCatV1.15B25,2013-05-30 22:08:00,
2013-05-30 18:13:00,87.6,66.6,30.01,North,0,1.0,2.0,50,0.00,,,0.00,WeatherCatV1.15B25,2013-05-30 22:13:00,
2013-05-30 18:18:00,87.6,66.6,30.01,NW,325,0.0,1.0,50,0.00,,,0.00,WeatherCatV1.15B25,2013-05-30 22:18:00,
2013-05-30 18:23:00,87.4,66.4,30.01,SW,228,0.0,0.0,50,0.00,,,0.00,WeatherCatV1.15B25,2013-05-30 22:23:00,
2013-05-30 18:28:00,87.0,66.1,30.01,WSW,257,0.0,5.0,50,0.00,,,0.00,WeatherCatV1.15B25,2013-05-30 22:28:00,
2013-05-30 18:33:00,86.8,66.5,30.01,South,173,0.0,1.0,51,0.00,,,0.00,WeatherCatV1.15B25,2013-05-30 22:33:00,
2013-05-30 18:38:00,86.6,66.8,30.01,SW,222,1.0,1.0,52,0.00,,,0.00,WeatherCatV1.15B25,2013-05-30 22:38:00,
2013-05-30 18:43:00,86.4,66.7,30.01,SSW,211,0.0,1.0,52,0.00,,,0.00,WeatherCatV1.15B25,2013-05-30 22:43:00,
2013-05-30 18:48:00,86.1,66.4,30.02,SW,219,0.0,2.0,52,0.00,,,0.00,WeatherCatV1.15B25,2013-05-30 22:48:00,
2013-05-30 18:53:00,85.7,66.6,30.02,SSW,208,0.0,1.0,53,0.00,,,0.00,WeatherCatV1.15B25,2013-05-30 22:53:00,
2013-05-30 18:58:00,85.4,67.9,30.02,SW,215,0.0,0.0,56,0.00,,,0.00,WeatherCatV1.15B25,2013-05-30 22:58:00,
2013-05-30 19:03:00,85.1,67.6,30.02,SW,214,0.0,1.0,56,0.00,,,0.00,WeatherCatV1.15B25,2013-05-30 23:03:00,
2013-05-30 19:08:00,84.7,66.7,30.02,SW,224,0.0,1.0,55,0.00,,,0.00,WeatherCatV1.15B25,2013-05-30 23:08:00,
2013-05-30 19:13:00,84.4,67.5,30.02,SW,223,0.0,0.0,57,0.00,,,0.00,WeatherCatV1.15B25,2013-05-30 23:13:00,
2013-05-30 19:18:00,84.1,68.2,30.02,SW,224,0.0,0.0,59,0.00,,,0.00,WeatherCatV1.15B25,2013-05-30 23:18:00,
2013-05-30 19:23:00,83.7,67.8,30.02,SW,223,0.0,0.0,59,0.00,,,0.00,WeatherCatV1.15B25,2013-05-30 23:23:00,
2013-05-30 19:28:00,83.2,67.8,30.02,SW,223,0.0,0.0,60,0.00,,,0.00,WeatherCatV1.15B25,2013-05-30 23:28:00,
2013-05-30 19:33:00,82.8,68.4,30.02,SW,224,0.0,0.0,62,0.00,,,0.00,WeatherCatV1.15B25,2013-05-30 23:33:00,
2013-05-30 19:38:00,82.5,68.6,30.02,SW,224,0.0,0.0,63,0.00,,,0.00,WeatherCatV1.15B25,2013-05-30 23:38:00,
2013-05-30 19:43:00,82.1,68.7,30.02,SW,224,0.0,0.0,64,0.00,,,0.00,WeatherCatV1.15B25,2013-05-30 23:43:00,
2013-05-30 19:48:00,81.5,68.6,30.02,SW,224,0.0,0.0,65,0.00,,,0.00,WeatherCatV1.15B25,2013-05-30 23:48:00,
2013-05-30 19:53:00,81.0,68.5,30.02,SW,224,0.0,0.0,66,0.00,,,0.00,WeatherCatV1.15B25,2013-05-30 23:53:00,
2013-05-30 19:58:00,80.5,68.5,30.02,SW,224,0.0,0.0,67,0.00,,,0.00,WeatherCatV1.15B25,2013-05-30 23:58:00,
2013-05-30 20:03:00,80.0,68.9,30.02,SW,224,0.0,0.0,69,0.00,,,0.00,WeatherCatV1.15B25,2013-05-31 00:03:00,
2013-05-30 20:08:00,79.5,69.2,30.02,SW,224,0.0,0.0,71,0.00,,,0.00,WeatherCatV1.15B25,2013-05-31 00:08:00,
2013-05-30 20:13:00,78.9,68.7,30.02,SW,223,0.0,0.0,71,0.00,,,0.00,WeatherCatV1.15B25,2013-05-31 00:13:00,
2013-05-30 20:18:00,78.4,68.6,30.03,SW,224,0.0,0.0,72,0.00,,,0.00,WeatherCatV1.15B25,2013-05-31 00:18:00,
2013-05-30 20:23:00,77.9,68.5,30.03,SW,224,0.0,0.0,73,0.00,,,0.00,WeatherCatV1.15B25,2013-05-31 00:23:00,
2013-05-30 20:28:00,77.4,68.4,30.03,SW,223,0.0,0.0,74,0.00,,,0.00,WeatherCatV1.15B25,2013-05-31 00:28:00,
2013-05-30 20:33:00,76.8,68.3,30.03,SW,223,0.0,0.0,75,0.00,,,0.00,WeatherCatV1.15B25,2013-05-31 00:33:00,
2013-05-30 20:38:00,76.3,68.5,30.03,SW,224,0.0,0.0,77,0.00,,,0.00,WeatherCatV1.15B25,2013-05-31 00:38:00,
2013-05-30 20:43:00,75.9,68.2,30.03,SW,224,0.0,0.0,77,0.00,,,0.00,WeatherCatV1.15B25,2013-05-31 00:43:00,
2013-05-30 20:48:00,75.6,68.2,30.03,SW,224,0.0,0.0,78,0.00,,,0.00,WeatherCatV1.15B25,2013-05-31 00:48:00,
2013-05-30 20:53:00,75.2,68.2,30.03,SW,223,0.0,0.0,79,0.00,,,0.00,WeatherCatV1.15B25,2013-05-31 00:53:00,
2013-05-30 20:58:00,74.9,67.9,30.04,SW,224,0.0,0.0,79,0.00,,,0.00,WeatherCatV1.15B25,2013-05-31 00:58:00,
2013-05-30 21:03:00,74.5,67.9,30.04,SW,223,0.0,0.0,80,0.00,,,0.00,WeatherCatV1.15B25,2013-05-31 01:03:00,
2013-05-30 21:08:00,74.1,67.9,30.04,SW,223,0.0,0.0,81,0.00,,,0.00,WeatherCatV1.15B25,2013-05-31 01:08:00,
2013-05-30 21:13:00,73.7,67.5,30.04,SW,224,0.0,0.0,81,0.00,,,0.00,WeatherCatV1.15B25,2013-05-31 01:13:00,
2013-05-30 21:18:00,73.3,67.5,30.04,SW,224,0.0,0.0,82,0.00,,,0.00,WeatherCatV1.15B25,2013-05-31 01:18:00,
2013-05-30 21:23:00,73.0,67.5,30.04,SW,224,0.0,0.0,83,0.00,,,0.00,WeatherCatV1.15B25,2013-05-31 01:23:00,
2013-05-30 21:28:00,72.7,67.2,30.04,SW,224,0.0,0.0,83,0.00,,,0.00,WeatherCatV1.15B25,2013-05-31 01:28:00,
2013-05-30 21:33:00,72.3,67.2,30.04,SW,224,0.0,0.0,84,0.00,,,0.00,WeatherCatV1.15B25,2013-05-31 01:33:00,
2013-05-30 21:38:00,72.0,66.9,30.05,SW,224,0.0,0.0,84,0.00,,,0.00,WeatherCatV1.15B25,2013-05-31 01:38:00,
2013-05-30 21:43:00,71.7,66.9,30.05,SW,224,0.0,0.0,85,0.00,,,0.00,WeatherCatV1.15B25,2013-05-31 01:43:00,
2013-05-30 21:48:00,71.4,66.6,30.05,SW,224,0.0,0.0,85,0.00,,,0.00,WeatherCatV1.15B25,2013-05-31 01:48:00,
2013-05-30 21:53:00,71.2,66.8,30.05,SW,224,0.0,0.0,86,0.00,,,0.00,WeatherCatV1.15B25,2013-05-31 01:53:00,
2013-05-30 21:58:00,71.0,66.6,30.05,SW,224,0.0,0.0,86,0.00,,,0.00,WeatherCatV1.15B25,2013-05-31 01:58:00,
2013-05-30 22:03:00,70.8,66.7,30.05,SW,224,0.0,0.0,87,0.00,,,0.00,WeatherCatV1.15B25,2013-05-31 02:03:00,
2013-05-30 22:08:00,70.6,66.5,30.05,SW,224,0.0,0.0,87,0.00,,,0.00,WeatherCatV1.15B25,2013-05-31 02:08:00,
2013-05-30 22:13:00,70.4,66.3,30.05,SW,224,0.0,0.0,87,0.00,,,0.00,WeatherCatV1.15B25,2013-05-31 02:13:00,
2013-05-30 22:18:00,70.2,66.5,30.05,SW,224,0.0,0.0,88,0.00,,,0.00,WeatherCatV1.15B25,2013-05-31 02:18:00,
2013-05-30 22:23:00,70.0,66.3,30.05,SW,224,0.0,0.0,88,0.00,,,0.00,WeatherCatV1.15B25,2013-05-31 02:23:00,
2013-05-30 22:28:00,69.8,66.1,30.05,SW,224,0.0,0.0,88,0.00,,,0.00,WeatherCatV1.15B25,2013-05-31 02:28:00,
2013-05-30 22:33:00,69.6,65.9,30.05,SW,224,0.0,0.0,88,0.00,,,0.00,WeatherCatV1.15B25,2013-05-31 02:33:00,
2013-05-30 22:38:00,69.5,65.8,30.05,SW,224,0.0,0.0,88,0.00,,,0.00,WeatherCatV1.15B25,2013-05-31 02:38:00,
2013-05-30 22:43:00,69.3,65.9,30.05,SW,224,0.0,0.0,89,0.00,,,0.00,WeatherCatV1.15B25,2013-05-31 02:43:00,
2013-05-30 22:48:00,69.3,65.9,30.05,SW,224,0.0,0.0,89,0.00,,,0.00,WeatherCatV1.15B25,2013-05-31 02:48:00,
2013-05-30 22:53:00,69.2,65.8,30.05,SW,224,0.0,0.0,89,0.00,,,0.00,WeatherCatV1.15B25,2013-05-31 02:53:00,
2013-05-30 22:58:00,69.1,66.0,30.05,SW,224,0.0,0.0,90,0.00,,,0.00,WeatherCatV1.15B25,2013-05-31 02:58:00,
2013-05-30 23:03:00,69.0,65.9,30.05,SW,224,0.0,0.0,90,0.00,,,0.00,WeatherCatV1.15B25,2013-05-31 03:03:00,
2013-05-30 23:08:00,68.8,65.7,30.05,SW,224,0.0,0.0,90,0.00,,,0.00,WeatherCatV1.15B25,2013-05-31 03:08:00,
2013-05-30 23:13:00,68.6,65.5,30.05,SW,223,0.0,0.0,90,0.00,,,0.00,WeatherCatV1.15B25,2013-05-31 03:13:00,
2013-05-30 23:18:00,68.5,65.4,30.05,SW,224,0.0,0.0,90,0.00,,,0.00,WeatherCatV1.15B25,2013-05-31 03:18:00,
2013-05-30 23:23:00,68.3,65.6,30.05,SW,224,0.0,0.0,91,0.00,,,0.00,WeatherCatV1.15B25,2013-05-31 03:23:00,
2013-05-30 23:28:00,68.2,65.5,30.05,SW,224,0.0,0.0,91,0.00,,,0.00,WeatherCatV1.15B25,2013-05-31 03:28:00,
2013-05-30 23:33:00,68.1,65.4,30.05,SW,224,0.0,0.0,91,0.00,,,0.00,WeatherCatV1.15B25,2013-05-31 03:33:00,
2013-05-30 23:38:00,67.9,65.2,30.05,SW,224,0.0,0.0,91,0.00,,,0.00,WeatherCatV1.15B25,2013-05-31 03:38:00,
2013-05-30 23:43:00,67.8,65.1,30.05,SW,224,0.0,0.0,91,0.00,,,0.00,WeatherCatV1.15B25,2013-05-31 03:43:00,
2013-05-30 23:48:00,67.7,65.0,30.05,SW,224,0.0,0.0,91,0.00,,,0.00,WeatherCatV1.15B25,2013-05-31 03:48:00,
2013-05-30 23:53:00,67.6,64.9,30.05,SW,224,0.0,0.0,91,0.00,,,0.00,WeatherCatV1.15B25,2013-05-31 03:53:00,
2013-05-30 23:58:00,67.5,65.1,30.05,SW,224,0.0,0.0,92,0.00,,,0.00,WeatherCatV1.15B25,2013-05-31 03:58:00,